Temperature
16 16 16 16 16 16 16 16 16 16 16 16 16 16 16 16 16 16 16 16 16 16 16 16 16 16 16 16 16 16 16 16 16 16 17 17 17 17 17 17 17 17 17
16 16 16 16 16 16 16 16 16 16 16 16 16 15 15 15 15 15 16 16 16 16 16 16 16 16 16 16 16 16 16 16 16 16 16 16 17 17 17 17 17 17 17
16 16 16 16 16 16 16 16 16 16 15 15 15 15 15 15 15 15 15 15 15 15 15 15 15 16 16 16 16 16 16 16 16 16 16 16 16 16 17 17 17 17 17
16 16 16 16 16 16 16 16 16 15 15 15 15 15 15 15 15 15 15 15 15 15 15 15 15 15 15 15 15 15 16 16 16 16 16 16 16 16 16 16 16 16 17
16 16 16 16 16 16 16 16 15 15 15 15 15 15 15 15 15 15 15 15 15 15 15 15 15 15 15 15 15 15 15 15 15 16 16 16 16 16 16 16 16 16 16
16 16 16 16 16 16 16 15 15 15 15 15 15 15 15 15 14 15 15 15 15 15 15 15 15 15 15 15 15 15 15 15 15 16 16 16 16 16 16 16 16 16 16
16 16 16 16 16 15 15 15 15 15 15 15 15 15 14 14 14 14 14 14 14 15 15 15 15 15 15 15 15 15 15 15 15 15 15 15 16 16 16 16 16 16 16
16 16 16 16 16 15 15 15 15 15 15 15 15 15 14 14 14 14 14 14 14 14 14 14 15 15 15 15 15 15 15 15 15 15 15 15 15 15 15 15 15 15 15
16 16 16 16 15 15 15 15 15 15 15 15 15 15 15 14 14 14 14 14 14 14 14 14 14 14 14 14 15 15 15 15 15 15 15 15 15 15 15 15 15 15 15
16 15 16 16 15 15 15 15 15 15 15 15 15 15 15 15 14 14 14 14 14 14 14 14 14 14 14 14 14 14 14 14 15 15 15 15 15 15 15 15 15 15 15
15 15 15 15 15 15 15 15 15 15 15 15 15 15 15 15 15 14 14 14 14 14 14 14 14 14 14 14 14 14 14 14 14 14 14 15 15 15 15 15 15 15 15
16 15 15 15 15 15 15 15 15 15 15 15 15 15 15 15 15 15 14 14 14 13 13 14 14 14 14 14 14 14 14 14 14 14 14 14 14 14 14 14 15 15 15
16 15 15 15 15 15 15 15 15 15 15 15 15 15 15 15 15 15 14 14 14 13 13 13 13 13 14 14 14 14 14 14 14 14 14 14 14 14 14 14 14 14 14
16 15 15 15 15 15 15 15 15 15 15 15 15 15 15 15 15 15 14 14 14 14 13 13 13 13 13 13 13 13 13 13 13 13 13 14 14 14 14 14 14 14 14
16 16 15 15 15 15 15 15 15 15 15 15 15 15 15 15 15 15 14 14 14 14 13 13 13 13 13 13 13 13 13 13 13 13 13 13 13 13 13 13 14 14 14
16 16 15 15 15 15 15 15 15 15 15 15 15 14 14 15 15 14 14 14 14 14 14 13 13 13 13 13 13 13 13 13 13 13 13 13 13 13 13 13 13 13 13
16 15 15 15 15 15 15 15 15 15 15 14 14 14 14 14 14 14 14 14 14 14 14 13 13 13 13 13 13 13 13 13 13 12 12 12 12 12 12 13 12 12 12
16 15 15 15 15 15 15 15 15 15 14 14 14 14 14 14 14 14 14 14 14 14 14 13 13 13 13 13 13 13 12 12 12 12 12 12 12 12 12 12 12 12 12
16 15 15 15 15 15 15 14 14 14 14 14 14 14 14 14 14 14 14 14 14 14 13 13 13 13 13 13 13 12 12 12 12 12 12 12 12 12 12 12 12 11 11
15 15 15 15 15 15 15 14 14 14 14 14 14 14 14 14 14 14 14 13 13 13 13 13 13 13 13 13 12 12 12 12 12 12 12 12 11 11 11 11 11 11 11
15 15 15 15 15 15 14 14 14 14 14 14 14 14 14 13 13 13 13 13 13 13 13 13 13 13 13 12 12 12 12 12 12 12 12 11 11 11 11 11 11 11 11
15 15 15 15 15 14 14 14 14 14 14 14 13 13 13 13 13 13 13 13 13 13 13 13 13 12 12 12 12 12 12 12 11 11 11 11 11 11 11 11 10 10 10
15 15 15 15 14 14 14 14 14 14 14 13 13 13 13 13 13 13 13 13 12 12 12 12 12 12 12 11 11 11 11 11 11 11 11 11 11 11 10 10 10 10 10
15 15 15 14 14 14 14 14 13 13 13 13 13 13 13 13 12 12 12 12 12 12 12 11 11 11 11 11 11 11 10 10 10 10 10 10 10 10 10 10 10 10 9
15 15 14 14 14 14 13 13 13 13 13 13 13 12 12 12 12 12 12 12 12 12 11 11 11 11 11 10 10 10 10 10 10 10 10 9 10 10 10 10 9 9 9
15 14 14 14 14 13 13 13 13 13 13 13 12 12 12 12 12 11 11 11 11 11 11 11 11 10 10 10 10 10 10 9 9 9 9 9 9 8 8 9 9 9 8
Wind_Speed
2 1 2 3 4 4 5 4 5 6 6 6 6 6 6 6 7 7 8 11 11 10 9 9 10 10 10 10 9 9 10 10 10 9 9 8 7 7 6 6 5 5 4
4 3 3 4 4 5 6 6 6 5 4 5 5 5 5 6 7 7 8 9 12 12 11 10 10 10 10 10 10 10 9 9 10 9 9 8 8 8 7 6 7 6 6
6 5 3 3 4 6 7 7 6 6 4 5 5 5 6 5 6 7 7 8 9 11 12 11 11 11 10 10 10 10 9 9 9 9 9 8 8 8 7 8 7 7 7
8 6 4 3 5 6 5 4 4 5 4 4 4 4 4 5 6 7 8 8 8 8 11 12 12 12 12 11 11 11 11 10 9 9 9 9 9 8 7 8 8 8 7
8 7 5 4 6 5 4 4 4 3 4 4 4 4 4 4 4 6 6 7 8 9 9 11 12 13 13 12 13 12 11 11 10 9 9 8 8 8 8 8 8 7 7
8 8 5 5 7 5 4 4 4 4 3 3 5 5 5 4 4 4 4 6 7 8 9 10 10 10 12 13 13 13 12 12 10 9 9 9 9 9 8 7 7 6 6
7 7 4 4 4 4 4 4 3 5 4 3 4 4 5 5 5 4 4 4 5 7 8 9 9 9 9 12 13 13 13 12 10 9 9 9 9 8 8 7 7 6 6
7 6 5 3 3 4 5 4 3 3 2 2 3 3 3 4 4 5 4 4 4 6 6 8 9 9 9 9 10 12 12 12 10 8 8 9 9 8 8 7 6 6 6
7 7 6 5 4 4 3 3 3 4 2 1 2 3 3 2 1 4 4 4 3 3 3 6 8 8 9 9 9 11 13 13 11 8 9 9 10 9 8 7 7 6 5
6 6 6 5 4 3 3 3 3 3 3 1 1 2 2 4 3 1 3 3 3 3 3 4 5 6 8 8 9 11 13 14 14 12 11 10 10 10 9 8 7 6 6
4 5 5 5 4 3 3 3 4 4 3 3 2 2 3 3 3 3 1 2 3 3 2 2 3 4 6 7 8 9 11 13 14 14 13 12 11 11 10 10 8 7 7
2 3 4 4 4 3 3 3 3 4 4 4 3 2 2 2 2 3 2 1 1 2 2 2 2 2 3 5 6 8 10 11 12 12 13 13 12 12 12 11 10 9 8
1 1 2 2 2 3 4 4 3 3 3 4 3 2 2 2 2 3 3 2 0 1 2 2 2 2 2 3 4 6 8 10 10 10 11 12 11 12 12 11 10 9 9
2 1 2 3 3 4 4 4 3 2 3 4 4 3 2 1 2 3 3 3 2 2 2 2 2 2 1 1 3 4 5 7 8 9 9 10 11 12 12 13 13 12 11
2 2 2 2 3 3 4 4 3 2 3 3 3 3 2 1 2 2 2 3 4 2 1 2 2 2 1 0 1 3 3 5 6 7 7 8 9 10 11 11 12 12 12
2 3 2 2 2 3 3 3 2 2 3 2 2 3 2 1 2 2 2 2 3 4 2 2 2 2 1 0 0 1 1 3 4 5 5 6 7 8 8 9 9 9 10
3 3 3 3 3 3 3 3 2 3 3 2 2 3 2 2 2 2 2 2 2 3 2 1 1 1 1 1 1 1 1 1 2 3 3 3 4 5 6 6 7 7 7
3 3 3 3 3 2 3 3 3 3 3 2 1 2 1 2 2 2 2 2 2 2 3 1 1 1 1 1 1 1 2 2 2 2 2 3 3 3 3 4 5 5 6
3 3 4 4 3 2 2 2 3 2 2 2 2 2 1 2 2 1 2 2 1 1 2 2 1 1 1 1 1 2 2 2 3 3 3 4 4 4 4 4 4 4 5
3 3 4 4 3 3 3 3 3 3 2 1 1 1 2 3 3 2 2 1 2 2 2 2 0 1 1 2 1 1 2 2 3 3 4 4 4 5 5 5 5 5 5
4 4 4 3 3 3 3 4 3 3 3 2 1 1 1 3 3 3 2 2 2 2 2 1 0 1 1 1 1 1 1 3 3 2 2 3 3 4 5 6 6 5 6
3 3 4 4 3 2 4 6 5 3 3 2 2 1 1 1 2 3 3 3 3 3 2 2 1 1 2 2 2 1 1 1 3 2 1 3 1 3 5 6 6 7 7
3 3 3 4 3 3 5 6 6 4 3 2 2 1 1 1 2 2 2 3 2 2 3 3 2 3 3 3 2 1 1 2 3 3 1 3 2 3 5 6 7 7 8
4 3 3 4 3 3 5 5 6 4 3 2 2 3 2 1 1 2 2 1 1 1 1 1 3 3 3 3 3 2 3 2 3 2 1 2 3 3 4 6 8 8 9
3 3 3 4 4 3 5 5 5 3 2 1 1 1 2 2 2 2 2 1 2 3 3 1 2 2 3 3 2 1 1 1 3 3 1 1 3 3 3 4 7 9 10
4 4 3 4 4 4 5 6 6 3 2 1 1 1 2 3 3 3 3 2 2 3 2 2 3 4 4 4 3 1 3 2 2 3 2 1 2 2 3 3 4 6 8
Wind_Direction
66 63 37 43 49 68 79 77 77 72 74 78 87 91 83 81 76 66 61 65 68 73 79 78 74 71 65 63 61 55 54 57 62 62 61 61 65 66 65 64 62 61 65
72 64 53 47 54 74 88 92 88 84 77 75 70 79 89 88 82 74 66 63 64 69 71 71 69 66 62 60 58 55 55 59 60 60 59 60 64 64 64 62 61 60 61
74 67 58 48 45 74 85 85 78 75 76 72 64 66 73 78 83 79 71 64 62 65 67 66 65 63 60 58 54 55 56 58 60 61 61 60 62 61 60 61 62 61 60
72 73 64 52 59 75 81 84 78 78 71 70 64 55 60 68 74 79 74 70 68 64 62 64 64 59 56 55 53 54 55 58 60 60 60 59 58 55 56 60 61 61 60
73 76 66 61 72 74 72 87 76 89 89 83 78 57 48 53 58 75 71 70 71 70 65 62 63 59 55 52 50 50 51 51 52 55 56 55 54 53 56 59 57 58 58
74 77 72 63 72 72 61 73 81 72 84 90 85 62 40 41 50 55 63 64 67 72 70 65 59 54 53 53 50 48 47 45 46 50 54 54 52 53 55 57 57 56 56
70 75 76 66 71 77 79 85 93 78 63 77 82 52 26 33 45 40 49 57 54 65 69 63 58 52 46 45 44 44 42 39 40 47 53 52 50 49 49 51 53 56 57
64 76 80 76 75 81 73 70 88 92 64 63 108 96 45 13 15 24 28 52 52 59 64 63 60 53 48 42 37 41 39 33 32 45 53 51 48 46 45 45 47 51 56
69 81 85 87 80 84 88 79 96 113 116 31 85 135 137 176 350 359 17 33 44 51 52 61 58 52 48 43 37 38 40 34 37 52 55 52 48 44 42 40 39 43 52
67 83 86 87 85 83 88 87 91 100 115 98 33 54 126 145 137 50 353 5 32 48 41 58 56 52 49 49 44 44 44 40 41 46 50 48 44 41 38 35 41 46 50
57 79 85 84 87 87 90 88 88 86 97 111 109 87 75 69 91 128 124 342 3 4 22 43 55 51 49 49 48 50 49 46 44 42 41 40 39 37 37 38 44 50 54
31 60 83 83 89 91 94 96 95 93 94 95 92 97 117 119 130 124 144 188 320 324 352 10 30 34 48 51 51 55 54 51 49 45 41 39 37 36 37 39 44 48 51
50 29 74 92 96 105 106 101 89 84 90 95 100 102 108 128 142 134 129 145 118 330 349 351 330 353 39 55 51 58 56 54 51 47 42 40 39 39 38 38 42 45 46
186 167 110 107 110 111 109 105 96 93 90 96 98 103 100 100 120 135 144 138 99 9 4 323 328 337 1 59 62 63 53 53 54 49 45 43 42 43 42 41 43 44 44
175 149 131 109 103 107 107 103 95 96 96 92 99 99 99 88 98 106 126 143 143 136 304 299 317 318 314 271 65 67 56 52 51 50 47 45 43 43 43 42 41 40 39
150 133 127 114 94 88 96 98 93 103 101 86 94 94 86 84 83 93 116 126 132 147 176 268 261 279 287 285 216 115 42 35 37 42 45 46 44 41 41 41 39 37 34
143 144 143 127 110 95 94 101 103 110 107 91 86 101 92 91 86 79 94 101 107 123 142 286 309 320 356 338 347 326 307 336 348 10 22 33 36 33 34 35 33 31 27
144 145 142 134 132 121 112 111 109 110 118 113 110 105 96 96 84 75 91 100 117 134 145 170 322 346 315 294 320 339 327 317 308 329 337 346 359 5 12 14 15 17 16
143 133 134 142 146 140 129 130 124 115 123 136 134 134 148 117 103 97 99 99 104 104 121 148 234 323 323 335 1 350 359 344 327 316 315 313 314 320 327 334 340 343 348
156 155 154 160 158 148 136 134 126 113 103 103 116 130 149 152 156 151 127 133 129 104 100 117 118 343 331 323 34 350 336 330 326 333 330 325 322 321 319 315 316 318 323
171 168 153 151 154 149 150 142 135 124 117 104 81 88 119 125 126 135 129 148 136 121 108 110 95 12 337 344 308 288 303 313 317 331 328 324 323 319 313 310 308 306 310
166 155 156 155 160 172 158 153 145 138 137 133 127 103 70 87 95 102 104 116 129 137 153 151 183 215 261 258 268 273 285 347 314 310 324 305 313 290 290 293 293 293 298
162 163 172 163 174 189 166 156 150 144 146 152 157 158 129 79 106 97 71 66 63 92 147 161 177 219 232 237 222 260 253 237 256 280 316 293 297 283 286 294 295 291 295
169 176 183 179 181 199 177 162 153 141 144 162 179 186 183 208 157 134 112 60 359 331 266 199 195 223 234 231 210 220 229 251 277 290 216 268 293 283 291 290 293 294 295
174 183 181 180 186 217 193 175 152 142 148 200 223 181 180 199 220 159 137 164 312 313 328 293 260 277 293 294 255 119 343 342 304 296 256 223 287 295 288 283 291 298 298
183 183 189 193 192 212 208 193 171 157 170 216 273 267 221 215 227 192 173 180 241 276 303 339 334 323 324 322 310 212 204 230 266 286 271 218 278 314 309 286 289 300 302
Height
1553 1553 1553 1553 1553 1553 1552 1552 1552 1552 1552 1552 1551 1551 1551 1551 1550 1549 1548 1548 1547 1547 1546 1546 1545 1545 1544 1543 1542 1541 1540 1538 1538 1539 1539 1539 1539 1538 1538 1538 1538 1537 1537
1554 1554 1554 1554 1554 1554 1554 1554 1553 1553 1553 1553 1553 1553 1553 1552 1552 1551 1550 1549 1549 1548 1548 1547 1547 1546 1545 1544 1543 1543 1542 1541 1541 1541 1540 1540 1540 1539 1539 1539 1538 1538 1537
1555 1555 1555 1554 1554 1555 1555 1555 1555 1555 1555 1555 1554 1554 1554 1554 1553 1553 1552 1551 1551 1550 1549 1549 1548 1547 1546 1545 1545 1544 1543 1543 1542 1542 1541 1541 1541 1540 1540 1539 1539 1538 1538
1556 1556 1555 1555 1555 1555 1556 1556 1556 1556 1556 1556 1556 1556 1556 1555 1555 1555 1554 1553 1553 1552 1551 1550 1550 1549 1548 1547 1546 1545 1544 1544 1544 1543 1542 1542 1541 1541 1540 1540 1539 1539 1538
1556 1556 1556 1555 1556 1556 1556 1556 1557 1557 1557 1557 1557 1557 1557 1557 1557 1556 1556 1555 1554 1554 1553 1552 1551 1550 1549 1548 1547 1546 1546 1545 1544 1544 1543 1542 1542 1541 1541 1540 1540 1539 1539
1557 1557 1556 1556 1556 1556 1557 1557 1557 1558 1558 1558 1558 1558 1559 1558 1558 1558 1557 1557 1556 1555 1554 1553 1552 1551 1550 1549 1548 1548 1547 1546 1545 1544 1544 1543 1542 1542 1541 1541 1540 1540 1539
1558 1557 1557 1557 1556 1556 1557 1557 1558 1558 1558 1559 1559 1559 1560 1560 1560 1559 1559 1558 1557 1557 1556 1555 1554 1553 1552 1551 1550 1549 1548 1546 1545 1544 1544 1543 1543 1542 1541 1541 1540 1540 1539
1559 1558 1558 1557 1557 1557 1557 1558 1558 1558 1559 1559 1560 1560 1561 1562 1561 1561 1560 1559 1559 1558 1557 1556 1555 1554 1553 1552 1551 1550 1549 1547 1545 1544 1544 1543 1543 1542 1541 1540 1539 1539 1538
1559 1559 1558 1558 1558 1558 1558 1558 1558 1559 1559 1559 1560 1561 1561 1561 1561 1562 1561 1561 1560 1559 1558 1557 1557 1556 1555 1554 1553 1551 1550 1547 1543 1543 1544 1543 1543 1542 1540 1539 1537 1537 1537
1560 1560 1559 1559 1558 1558 1558 1559 1559 1559 1559 1559 1559 1560 1561 1561 1561 1562 1562 1562 1561 1560 1559 1559 1558 1557 1556 1555 1554 1552 1551 1549 1546 1544 1544 1544 1543 1541 1539 1537 1535 1535 1536
1561 1560 1560 1559 1559 1559 1559 1559 1559 1559 1559 1559 1559 1560 1560 1560 1561 1561 1562 1562 1562 1561 1560 1560 1559 1558 1557 1556 1555 1554 1552 1550 1548 1546 1545 1544 1542 1541 1538 1535 1534 1534 1535
1561 1561 1561 1560 1560 1560 1560 1560 1560 1560 1560 1560 1560 1560 1560 1560 1561 1561 1561 1561 1561 1562 1561 1561 1560 1559 1558 1557 1556 1555 1553 1552 1550 1548 1546 1544 1543 1541 1539 1537 1535 1535 1536
1562 1561 1561 1561 1560 1560 1560 1561 1560 1560 1560 1560 1560 1560 1560 1561 1561 1561 1561 1561 1561 1562 1562 1561 1561 1560 1559 1558 1557 1556 1555 1553 1552 1550 1548 1546 1544 1543 1541 1539 1538 1537 1537
1562 1562 1562 1561 1561 1561 1561 1561 1561 1561 1561 1561 1561 1561 1561 1561 1561 1561 1561 1561 1561 1562 1561 1561 1561 1560 1559 1559 1558 1557 1555 1554 1552 1551 1549 1547 1545 1544 1543 1541 1539 1539 1538
1562 1562 1562 1562 1562 1561 1561 1561 1561 1561 1561 1561 1561 1561 1561 1561 1561 1561 1561 1561 1562 1561 1561 1561 1561 1560 1560 1559 1558 1557 1556 1555 1553 1552 1550 1548 1547 1545 1544 1543 1541 1540 1539
1563 1562 1562 1562 1562 1562 1562 1561 1561 1561 1561 1561 1561 1561 1561 1561 1561 1561 1561 1561 1561 1561 1561 1561 1560 1560 1560 1559 1558 1558 1556 1555 1554 1553 1551 1549 1548 1546 1545 1543 1542 1541 1539
1563 1563 1563 1562 1562 1562 1562 1562 1562 1561 1561 1561 1561 1561 1561 1561 1561 1561 1561 1561 1561 1561 1560 1561 1560 1560 1559 1559 1558 1557 1556 1555 1554 1553 1551 1550 1548 1547 1546 1544 1542 1541 1539
1562 1562 1563 1563 1562 1562 1562 1562 1562 1561 1561 1561 1561 1561 1561 1561 1561 1561 1561 1561 1561 1561 1560 1560 1560 1559 1559 1558 1558 1557 1556 1555 1554 1552 1551 1550 1548 1547 1545 1544 1542 1541 1539
1562 1562 1562 1562 1562 1562 1562 1561 1561 1561 1561 1561 1561 1561 1561 1561 1561 1561 1560 1560 1560 1560 1560 1559 1559 1559 1558 1558 1557 1556 1555 1554 1553 1552 1550 1549 1547 1546 1545 1543 1541 1540 1538
1561 1561 1561 1561 1561 1561 1561 1561 1561 1561 1561 1561 1560 1560 1560 1560 1560 1560 1560 1559 1559 1559 1559 1558 1558 1557 1557 1556 1555 1554 1553 1552 1551 1550 1549 1548 1546 1545 1543 1542 1540 1538 1537
1560 1560 1560 1560 1560 1560 1560 1560 1560 1560 1560 1560 1560 1559 1559 1559 1559 1559 1558 1558 1558 1558 1557 1557 1556 1555 1555 1554 1554 1553 1551 1550 1549 1548 1547 1546 1544 1543 1541 1540 1538 1536 1534
1558 1559 1559 1559 1559 1559 1559 1559 1559 1559 1559 1559 1558 1558 1558 1558 1558 1557 1557 1557 1557 1556 1555 1555 1554 1553 1553 1552 1551 1550 1549 1547 1546 1546 1544 1543 1542 1540 1539 1537 1536 1534 1532
1557 1557 1557 1558 1558 1558 1558 1558 1558 1558 1557 1557 1557 1557 1556 1556 1556 1556 1555 1555 1555 1554 1554 1554 1552 1552 1551 1550 1549 1548 1547 1545 1544 1543 1541 1539 1539 1537 1536 1534 1533 1531 1529
1555 1555 1555 1556 1556 1556 1556 1556 1556 1556 1556 1555 1555 1555 1555 1555 1555 1554 1554 1553 1552 1552 1551 1551 1550 1549 1549 1548 1547 1546 1544 1543 1541 1540 1539 1536 1535 1533 1532 1531 1529 1528 1526
1552 1553 1553 1553 1554 1554 1554 1554 1554 1554 1554 1553 1553 1553 1553 1552 1552 1552 1551 1550 1550 1549 1549 1548 1548 1547 1546 1545 1544 1542 1541 1539 1537 1536 1535 1533 1531 1529 1527 1526 1525 1523 1521
1550 1550 1551 1551 1551 1551 1552 1552 1552 1551 1551 1551 1551 1551 1550 1550 1550 1549 1549 1548 1547 1546 1546 1545 1544 1544 1543 1542 1541 1539 1538 1536 1534 1532 1531 1530 1527 1525 1522 1521 1520 1519 1516